GFSNGP_sfc_dewp_135.txt.gz
Dewpoint
15 11 12 12 15 18 25 23 23 23 22 26 30 33 34 33 30 29 30 30 31 30 31 32 33 32 32 34 35 36 36 37 38 41 42 44 46 48 53 59 59 60 60 60
13 13 13 13 20 26 25 25 25 22 21 28 32 34 31 29 30 28 28 29 29 30 31 31 31 31 31 32 33 34 34 34 35 37 38 41 42 44 46 49 55 57 57 57
11 17 19 21 23 23 24 26 26 23 28 30 30 32 32 30 29 28 27 27 28 29 30 31 30 31 30 31 32 32 32 32 32 34 35 36 38 40 42 45 49 51 55 56
17 21 15 21 23 23 22 26 27 26 27 29 30 32 33 30 30 27 25 25 25 26 27 28 30 31 29 30 30 30 30 30 31 32 33 33 35 37 38 42 43 45 44 47
19 19 20 26 26 19 20 23 26 26 27 29 30 30 31 30 28 26 24 24 24 24 25 27 27 29 28 27 29 29 29 29 30 31 31 33 33 34 36 39 39 39 38 38
23 17 14 19 24 26 25 20 26 28 27 28 29 24 26 29 27 24 23 23 23 24 25 25 27 28 27 26 27 27 28 28 29 30 30 31 32 33 35 36 36 35 34 34
21 19 20 25 26 27 20 21 28 30 29 30 28 31 32 29 25 23 22 21 22 23 24 24 26 26 26 26 26 27 27 27 28 29 29 30 31 32 33 34 34 34 33 33
22 19 15 27 24 21 26 27 29 30 30 32 31 30 28 27 23 22 21 20 21 21 22 23 25 25 24 25 26 26 26 26 27 28 28 28 29 30 30 31 32 32 32 31
22 20 27 28 26 28 28 27 30 30 30 33 28 27 26 25 23 22 21 20 21 21 22 23 24 24 24 24 26 25 25 25 25 27 28 30 29 28 29 30 30 30 29 29
23 25 28 29 28 29 28 28 31 32 31 30 28 27 25 24 23 22 23 21 20 20 21 22 23 24 23 23 25 24 24 24 24 26 26 28 28 28 27 27 27 27 27 27
26 25 29 29 29 29 28 30 31 31 29 29 28 26 24 23 22 22 22 22 21 20 21 22 23 23 23 23 23 24 24 24 24 24 25 26 26 27 27 28 28 27 27 27
23 24 28 29 30 29 29 30 29 27 26 26 27 25 23 23 21 20 20 20 21 21 20 21 22 23 25 25 24 23 23 24 24 24 23 24 24 25 25 25 25 26 28 28
29 30 30 31 29 28 30 29 28 26 25 24 27 25 23 22 22 21 20 20 19 20 21 21 22 23 24 25 25 23 23 23 23 23 23 24 24 23 23 24 22 23 23 25
32 32 29 27 28 30 28 28 26 23 23 23 23 24 23 23 22 21 19 19 19 20 20 20 21 22 24 25 24 22 23 19 23 23 23 23 23 23 22 21 21 21 21 21
29 28 27 27 25 24 23 22 20 20 19 20 21 21 22 21 20 20 20 19 19 18 18 19 19 21 23 24 23 23 24 23 23 23 22 21 21 21 20 20 19 19 20 19
26 25 23 22 20 19 19 19 18 17 18 18 18 19 21 21 19 16 15 15 16 15 16 18 19 21 23 25 25 24 23 21 21 22 21 21 20 19 19 18 18 17 16 16
21 20 20 21 20 18 16 17 15 15 16 17 17 17 17 19 16 14 14 13 13 13 15 18 18 21 24 25 26 24 23 21 19 20 19 19 19 18 18 18 17 16 16 14
18 17 17 18 17 16 16 15 15 15 16 17 16 15 14 14 14 13 12 13 14 15 16 18 20 22 23 25 25 23 22 21 20 19 18 18 17 16 16 16 15 15 16 14
14 14 15 15 15 15 15 15 15 16 16 16 15 14 15 14 13 12 13 13 13 14 16 18 20 21 22 24 25 23 22 22 20 19 18 16 17 15 15 16 15 15 14 13
13 13 13 13 14 14 13 13 15 14 14 14 14 13 12 11 12 12 13 13 15 15 17 17 18 19 20 22 23 23 23 23 20 19 19 17 17 16 14 11 12 14 14 13
15 13 13 12 12 11 10 12 12 12 11 10 12 10 9 10 10 11 11 10 14 14 15 16 16 16 18 20 21 23 23 22 21 20 18 17 16 14 13 13 12 13 13 13
12 10 10 11 11 10 9 11 11 9 9 8 6 7 10 12 11 12 11 12 14 12 14 14 14 14 16 18 19 21 21 20 20 19 18 17 16 14 13 12 12 11 12 12
11 11 9 9 10 12 8 9 7 9 9 8 9 10 12 12 13 11 10 12 12 12 13 14 10 12 13 18 18 19 18 18 18 18 17 17 15 14 13 12 11 11 11 10
11 11 11 9 8 12 13 12 11 10 7 9 8 4 11 13 14 14 12 9 8 9 10 10 9 9 12 15 15 16 16 16 16 17 16 13 14 14 13 12 11 11 10 9
13 10 11 12 13 14 13 12 11 12 12 13 12 12 11 12 13 12 11 11 9 10 12 7 6 8 12 13 13 13 14 14 14 15 15 14 13 13 13 12 11 11 10 10
15 13 13 13 14 14 14 14 13 12 14 14 14 13 13 12 13 12 11 7 10 8 10 10 9 10 11 11 12 12 12 12 13 12 12 12 12 11 10 10 10 9 9 9
12 11 13 13 13 13 11 10 13 13 13 14 13 12 12 12 11 10 7 11 10 9 10 10 10 8 9 9 10 10 10 11 9 10 11 11 10 10 9 9 9 9 8 8

GFSNGP_sfc_dewp_138.txt.gz
Dewpoint
6 -0 2 4 9 14 26 26 25 19 19 22 29 31 32 31 30 28 28 29 32 31 31 31 32 32 34 33 34 35 35 37 38 41 41 46 47 49 51 53 61 62 62 62
-0 1 2 2 13 20 23 25 20 19 19 29 30 31 30 30 28 28 27 28 30 31 31 31 31 31 32 33 34 35 34 34 35 36 37 39 42 44 46 48 52 59 60 60
2 12 14 19 22 24 32 24 26 25 31 30 30 30 32 31 28 27 26 26 29 30 30 31 31 32 32 31 32 33 33 33 33 34 36 36 39 40 41 44 47 48 49 55
13 19 15 24 23 22 24 27 27 26 29 30 29 30 33 29 28 26 25 24 24 25 26 26 29 30 31 30 30 30 30 31 32 33 33 35 35 37 39 41 43 42 42 45
18 13 18 24 24 22 18 20 26 27 28 28 28 30 32 28 27 25 24 23 23 23 24 25 26 27 27 29 28 29 29 30 30 32 32 33 34 35 38 38 38 37 37 36
20 14 11 22 24 23 24 23 26 27 27 28 28 26 28 28 26 24 23 22 22 23 23 24 25 26 26 26 28 27 28 29 30 31 32 32 33 34 36 37 36 35 34 34
18 17 18 24 24 27 21 26 27 29 28 29 30 30 30 28 26 24 23 21 22 22 22 23 25 26 25 25 26 26 27 28 29 30 30 31 32 32 33 35 35 35 33 34
19 17 14 24 25 23 27 28 29 30 28 29 29 29 28 26 24 23 22 21 21 21 22 23 24 24 23 24 26 26 26 27 28 29 29 29 30 31 31 32 33 33 33 33
21 22 29 26 27 29 28 27 30 30 28 29 28 27 26 25 24 22 22 21 21 21 22 23 23 23 23 24 25 26 26 26 27 27 28 29 29 29 30 31 32 32 31 31
22 27 26 28 28 29 28 28 29 30 29 28 27 27 26 24 22 21 21 21 21 21 21 22 23 23 24 25 25 25 25 26 26 27 28 27 28 27 27 28 30 30 29 30
21 25 28 28 29 30 28 29 29 30 27 27 26 25 25 23 22 21 20 20 21 21 21 21 22 23 23 24 25 24 25 25 26 26 26 27 27 26 26 27 27 28 29 28
27 26 25 28 31 30 29 29 28 27 26 25 26 24 23 23 22 20 20 19 19 20 21 21 22 23 24 24 24 24 23 24 25 26 27 26 27 29 24 24 24 25 26 28
33 32 34 33 31 29 30 30 29 28 26 24 25 23 23 22 23 22 21 21 20 21 22 22 23 23 25 26 26 25 25 25 26 26 26 26 27 26 27 28 25 23 23 25
34 35 32 31 31 32 29 28 26 23 22 23 22 22 22 23 22 23 22 22 21 20 20 22 23 25 26 27 27 26 27 25 28 28 28 28 27 26 26 26 26 26 24 23
30 30 32 31 29 28 26 24 22 20 19 19 19 20 20 20 19 19 20 20 21 19 19 20 21 23 25 27 28 27 28 27 27 28 28 26 27 27 27 26 26 26 26 25
27 26 26 25 23 22 22 21 19 17 17 18 18 19 19 18 17 16 15 15 17 18 19 20 21 23 26 28 29 28 27 23 24 26 26 26 26 25 25 25 24 23 21 21
25 23 24 23 22 19 18 17 16 16 16 17 17 17 17 17 16 15 16 17 18 19 21 21 21 24 26 27 29 28 26 24 22 23 23 23 23 23 23 23 23 22 21 20
24 22 21 21 19 18 16 15 15 15 16 17 17 18 18 17 16 16 16 17 18 19 20 21 22 23 25 25 25 24 24 23 22 22 21 22 21 21 22 21 21 20 21 20
18 18 17 15 16 16 15 16 17 17 18 18 17 17 16 15 15 16 16 16 16 16 18 19 20 21 22 24 25 24 24 24 22 21 21 21 22 20 21 22 21 21 20 19
15 14 14 15 15 16 16 17 17 17 18 17 16 15 14 14 14 15 16 16 16 16 17 17 18 20 21 23 25 23 24 24 21 21 22 21 21 21 20 16 18 20 21 20
17 14 15 15 14 15 15 16 16 16 16 16 14 13 13 14 14 13 14 13 15 15 16 17 17 17 19 21 22 26 26 24 23 22 21 21 20 19 18 19 19 19 19 19
17 15 15 15 14 14 15 16 16 15 15 14 12 14 14 15 15 15 14 14 14 14 15 16 16 16 18 21 22 24 23 23 23 23 21 21 20 19 18 17 17 17 17 17
16 15 15 14 15 15 15 15 14 15 14 14 13 14 14 15 15 14 13 13 12 13 14 16 14 14 18 21 22 22 22 21 21 21 20 20 19 18 18 16 16 16 16 15
17 17 16 17 15 16 16 17 17 16 14 15 14 13 15 17 17 14 14 13 12 14 15 14 14 14 16 19 19 19 19 20 20 20 19 17 18 17 17 16 15 15 14 13
17 17 17 17 17 17 18 18 16 16 16 16 16 15 14 15 16 15 16 15 12 13 15 12 11 13 17 17 17 17 17 17 17 18 18 17 17 17 16 15 14 14 14 13
19 17 17 17 17 16 16 16 16 16 15 16 16 18 18 17 16 16 15 12 12 11 14 15 14 15 15 15 15 15 16 14 16 15 16 16 15 14 14 13 13 13 13 13
17 15 16 16 15 15 15 15 17 16 16 18 16 17 16 18 16 14 13 15 14 14 14 14 14 12 12 13 12 13 13 14 12 13 14 14 14 14 13 13 13 13 12 12

GFSNGP_sfc_dewp_141.txt.gz
Dewpoint
6 1 8 13 12 12 26 20 21 18 16 17 29 30 31 31 30 28 28 28 31 34 33 32 32 33 33 34 34 34 35 35 36 38 41 42 43 46 50 52 55 60 62 61
8 2 -3 -4 6 11 13 14 12 15 16 29 30 31 29 30 29 28 27 28 28 31 33 32 31 33 33 33 35 34 34 34 35 35 37 39 40 42 44 47 50 50 52 60
3 -2 -4 12 10 14 32 21 24 26 29 31 29 29 30 31 29 28 26 27 27 30 32 31 30 30 33 33 33 33 33 34 34 34 34 36 38 38 40 42 44 44 46 46
6 14 12 20 21 16 17 28 27 25 29 31 29 30 32 29 28 27 26 25 25 25 25 25 28 28 30 30 31 31 32 32 34 34 34 35 35 36 38 39 39 39 39 41
14 14 17 22 21 19 19 21 23 28 28 28 28 30 34 28 27 26 25 24 24 24 24 25 25 26 26 27 28 29 30 30 32 32 33 34 33 35 37 37 36 35 36 34
16 13 12 21 22 23 21 21 26 27 27 27 28 25 28 29 27 25 24 24 23 23 24 24 24 25 25 25 27 27 29 30 30 32 32 32 33 34 36 36 35 34 34 34
17 16 19 24 23 24 19 26 27 32 28 28 30 30 30 29 26 25 24 23 23 23 23 24 24 25 25 25 25 27 28 29 29 30 30 31 32 32 34 34 34 34 33 33
18 16 14 25 24 21 28 29 30 30 29 29 29 29 28 26 25 24 22 22 23 22 23 23 23 24 23 24 25 26 28 28 28 30 29 29 29 30 32 32 32 33 32 32
19 20 30 25 27 29 27 27 30 30 29 29 28 28 26 25 24 23 22 21 22 22 23 23 23 23 23 24 25 26 27 27 27 28 29 30 30 27 28 30 31 31 30 30
24 26 25 25 26 26 26 28 29 29 28 28 27 27 26 24 23 22 21 20 21 21 21 22 23 23 23 24 25 25 26 26 27 28 28 28 28 28 26 26 28 28 30 29
22 23 26 25 26 28 28 29 29 28 27 26 26 26 25 24 23 22 21 21 20 21 21 22 22 23 23 24 25 24 25 26 26 29 28 29 27 27 27 26 26 26 27 29
29 27 25 28 28 30 29 28 28 27 26 26 26 24 24 23 23 21 21 20 20 20 20 21 23 25 23 25 25 25 25 25 29 29 28 28 28 29 26 25 24 25 26 27
32 30 31 32 31 30 30 30 29 29 27 25 26 23 23 23 24 23 22 21 20 21 20 21 22 25 26 26 27 26 26 25 27 27 28 27 27 27 28 28 26 25 25 26
34 36 33 32 34 32 30 29 27 23 23 22 22 22 22 22 26 25 22 22 22 22 21 22 23 25 26 28 29 28 27 26 28 28 28 29 28 29 29 27 27 28 28 27
29 30 33 32 31 29 28 25 23 22 20 20 20 20 20 20 19 19 20 20 21 21 20 21 22 24 27 28 30 29 29 27 29 30 29 28 28 27 27 27 26 25 24 26
27 27 28 27 26 25 24 22 21 19 18 19 18 19 20 18 17 16 16 16 19 19 21 21 22 24 27 29 30 29 29 26 26 26 27 26 26 25 24 25 24 23 21 23
26 26 26 24 24 22 19 19 18 17 18 19 18 18 19 19 18 17 18 19 21 22 22 23 22 25 27 27 28 26 26 26 26 24 24 24 24 24 23 24 24 23 23 24
26 25 25 25 23 21 18 17 17 17 18 18 18 19 18 17 17 17 18 19 19 21 20 21 22 24 25 25 25 26 25 23 23 24 25 24 23 23 23 23 22 21 22 22
22 21 21 19 20 19 17 18 19 19 19 19 19 17 16 16 16 17 19 17 17 16 18 19 20 21 22 23 24 26 26 25 23 22 23 23 24 22 21 23 22 22 21 21
19 18 17 17 18 18 19 19 19 19 19 18 17 16 16 15 15 17 18 19 17 16 18 17 18 18 21 22 25 25 26 25 24 24 23 22 23 23 22 20 20 21 22 21
19 17 17 17 17 17 18 19 18 17 17 17 16 14 14 15 14 15 16 15 17 15 17 17 16 16 19 21 23 26 26 25 25 24 23 23 23 21 21 21 21 20 20 20
19 18 17 17 17 17 17 18 17 17 16 14 14 15 17 19 19 16 15 15 15 14 17 16 15 17 19 21 21 24 23 23 23 23 22 22 22 21 21 20 20 19 19 19
18 18 17 16 16 17 17 17 16 16 15 14 15 16 16 16 16 16 14 15 13 15 14 16 14 16 19 22 22 22 22 22 22 22 21 21 20 20 19 18 19 18 16 17
19 18 18 19 17 17 16 17 18 16 15 16 15 15 17 21 21 16 16 16 13 18 18 15 15 16 17 20 20 20 20 19 21 21 20 19 20 19 18 17 17 18 17 15
19 19 18 17 18 18 19 18 18 17 17 17 16 16 15 16 17 16 16 17 14 14 17 14 14 16 18 18 18 17 18 18 17 18 18 18 17 17 17 16 15 14 16 15
20 18 19 20 19 18 18 17 17 18 18 18 18 21 20 19 19 18 19 13 15 13 15 17 16 16 17 16 16 16 16 14 16 16 16 16 16 15 15 15 15 15 14 13
21 19 19 18 18 18 18 18 19 18 18 22 18 18 18 20 18 16 13 17 17 16 17 17 17 13 14 15 14 14 14 15 14 13 15 15 15 15 14 14 14 14 14 14

GFSNGP_sfc_dewp_144.txt.gz
Dewpoint
16 10 12 13 11 10 24 22 22 15 14 20 29 30 30 30 29 28 27 28 30 32 33 32 31 31 31 33 33 33 32 33 34 35 37 37 39 41 44 46 47 51 57 55
16 9 -2 -1 12 14 15 14 13 13 11 29 28 29 28 30 28 28 27 27 28 29 31 32 30 30 30 32 32 33 32 32 33 34 34 35 36 39 40 41 43 44 47 45
9 8 4 11 15 14 31 16 16 20 26 31 28 28 30 31 28 27 26 26 27 28 29 29 29 28 29 30 31 32 32 32 32 33 33 34 34 36 37 37 38 38 39 42
13 14 8 10 16 8 8 21 18 19 30 30 27 28 32 29 28 27 25 25 25 25 25 25 27 26 28 28 29 30 31 31 32 32 32 33 33 34 36 36 36 35 35 35
16 14 14 20 21 18 14 16 23 26 29 26 26 28 32 28 27 26 25 24 24 24 24 25 25 25 26 27 27 28 30 31 32 31 31 31 32 34 35 35 34 34 34 33
19 15 17 19 20 21 21 21 26 28 27 26 26 23 30 28 26 25 24 24 23 24 24 24 24 25 25 25 26 27 29 30 31 32 31 29 30 31 34 34 34 34 32 32
18 18 19 23 22 22 16 25 30 30 28 28 31 29 30 28 25 24 23 23 23 23 23 24 24 24 24 24 25 26 29 30 30 31 29 29 28 28 30 32 33 33 32 32
19 19 15 24 23 20 29 30 32 31 30 30 30 29 28 26 24 23 22 22 22 22 23 23 23 24 23 23 24 26 28 28 30 30 29 27 28 26 26 28 30 30 30 30
19 22 31 26 29 30 28 30 30 30 30 29 28 27 26 25 23 22 22 21 21 21 22 23 23 23 23 24 25 25 27 28 29 30 31 30 28 26 24 26 27 27 27 28
26 26 24 27 27 26 26 29 29 29 28 28 27 27 26 24 23 21 21 21 20 20 20 21 22 23 24 24 26 25 25 27 27 29 30 30 28 27 24 24 24 25 26 25
25 25 26 25 26 26 28 30 29 28 26 26 26 26 25 24 23 22 21 20 20 20 19 19 21 23 24 25 25 25 26 26 27 29 29 28 28 27 26 26 26 25 26 27
32 30 28 26 28 28 28 28 28 27 26 26 25 24 23 26 23 21 21 20 19 19 19 19 21 22 23 26 28 25 26 26 28 27 28 28 28 29 28 29 28 28 29 28
33 31 34 33 30 30 31 30 29 29 26 25 24 23 23 24 24 23 21 20 18 21 19 20 21 23 25 27 28 29 27 26 28 28 27 28 28 28 27 29 30 29 30 28
34 35 33 32 33 32 30 29 27 24 23 22 22 22 22 26 25 24 20 20 20 23 20 23 23 23 25 27 28 29 30 26 28 29 29 28 28 28 28 27 24 24 26 30
29 32 33 32 30 29 28 26 23 22 21 21 20 20 20 19 19 18 21 20 21 22 21 22 22 22 25 27 27 29 29 27 28 29 28 28 28 27 27 26 24 22 23 25
28 29 29 28 26 25 24 23 22 20 20 20 20 21 22 19 17 16 17 18 19 21 21 21 21 23 26 26 26 28 28 28 27 27 26 26 26 26 25 25 25 22 21 24
26 25 25 25 24 23 20 20 20 19 19 18 18 18 17 17 16 17 18 20 21 21 20 21 21 23 26 25 25 28 28 26 25 26 26 25 25 25 25 24 24 24 23 23
26 26 25 25 25 21 19 19 19 19 18 18 19 17 16 16 17 17 19 19 18 19 20 21 21 22 23 23 24 28 26 25 24 24 24 25 24 23 24 24 23 23 22 22
24 24 24 23 23 20 19 19 19 20 21 21 18 16 16 15 16 18 21 16 15 15 20 20 20 19 21 22 25 26 26 25 24 23 23 23 23 23 22 22 22 22 21 20
20 20 20 20 20 19 20 20 21 20 20 18 16 16 15 13 13 14 22 17 16 16 20 17 16 17 21 21 24 25 25 25 24 23 23 23 22 22 21 20 19 20 20 20
21 19 19 19 19 19 19 20 19 17 17 15 15 13 12 15 14 14 15 15 16 15 17 15 15 16 20 21 21 24 23 23 23 22 21 21 21 21 20 20 20 19 19 19
20 18 18 18 18 19 20 19 18 16 15 13 10 12 17 20 17 15 15 15 16 14 16 15 14 15 19 20 21 22 21 21 21 21 21 20 19 19 17 18 17 17 17 18
19 19 18 16 17 18 17 17 16 15 14 14 16 17 17 17 17 16 14 15 13 17 15 16 13 15 18 20 21 20 19 18 20 19 20 20 19 19 17 17 17 17 16 17
19 18 18 19 17 17 16 17 18 17 15 16 14 13 17 21 20 18 18 16 11 17 17 15 14 16 16 19 18 18 18 18 17 18 18 17 18 17 17 15 14 16 16 15
19 20 19 18 18 19 19 19 18 18 19 18 18 18 18 17 18 18 18 18 15 15 18 14 12 15 17 17 17 16 18 15 16 17 17 17 16 16 15 15 15 14 14 13
20 18 18 21 21 20 19 17 17 19 20 19 19 21 20 20 19 18 20 17 18 16 17 18 16 15 16 16 15 15 15 15 13 14 15 15 15 14 13 14 13 14 14 13
22 21 20 20 20 20 21 20 22 20 20 23 20 20 19 20 19 17 16 19 18 18 18 18 18 15 14 14 15 14 14 14 13 13 13 13 13 13 13 12 12 13 13 12

GFSNGP_sfc_dewp_147.txt.gz
Dewpoint
22 23 21 16 16 14 23 22 21 19 18 28 30 30 31 30 30 29 28 28 29 30 28 28 28 29 28 30 29 30 31 32 33 33 33 34 35 37 39 40 41 42 47 52
21 21 21 9 19 18 16 19 17 18 17 29 30 31 31 30 28 28 27 27 28 28 29 29 28 27 28 30 29 29 30 31 32 31 31 32 34 35 37 37 38 40 40 40
21 23 21 15 15 17 24 25 23 20 28 31 29 31 32 30 29 28 26 26 27 27 28 28 27 26 27 28 28 28 30 30 31 30 31 30 32 34 35 35 35 36 36 37
18 18 11 16 14 8 13 21 22 27 31 30 29 32 31 29 28 28 26 25 25 24 25 25 25 25 26 26 26 27 29 30 30 30 30 29 29 31 34 34 34 33 33 33
19 12 14 22 19 20 19 21 20 30 30 29 30 32 29 28 27 26 25 24 24 24 24 24 23 24 24 24 25 26 28 29 31 30 28 29 28 29 30 33 33 33 32 32
22 12 12 23 19 22 23 24 30 30 30 29 28 24 27 28 27 25 23 23 22 23 24 23 23 23 23 24 24 26 28 29 31 31 28 27 27 28 29 31 32 32 31 31
20 22 23 24 23 24 18 23 30 30 30 30 26 28 29 29 25 23 22 22 22 22 23 22 23 24 23 23 23 26 29 29 31 30 29 27 26 26 26 28 29 29 30 30
22 21 19 25 24 23 31 32 32 32 32 31 30 30 29 27 23 22 21 21 21 21 21 22 23 24 23 24 24 26 28 28 30 29 31 27 26 25 25 25 26 27 27 27
23 25 31 30 31 33 32 32 33 31 30 30 29 28 27 25 23 22 21 20 21 20 20 21 22 23 24 24 26 26 27 26 28 29 29 28 27 24 24 25 25 25 25 26
27 29 29 28 28 31 30 31 32 30 30 29 28 27 26 23 22 21 20 20 20 19 19 19 21 23 23 25 27 26 26 26 27 28 28 29 26 25 25 25 25 25 25 25
28 30 27 27 29 30 29 30 28 29 28 28 27 25 26 23 22 21 21 20 19 20 18 19 21 22 22 24 27 28 26 26 28 27 28 28 28 26 26 28 28 26 26 27
30 29 29 28 30 31 30 29 29 27 26 25 25 24 26 23 22 20 20 18 19 20 18 19 21 22 23 25 27 28 27 26 27 28 28 28 28 28 30 29 28 30 30 29
32 33 32 32 31 30 30 29 28 26 26 24 24 24 25 24 22 20 18 18 20 20 20 21 21 21 23 25 26 28 28 26 27 28 28 27 27 27 25 24 24 26 30 30
33 32 31 31 29 30 29 29 28 24 23 23 23 22 26 25 21 15 10 10 12 15 15 16 17 18 22 26 26 27 28 26 27 27 26 26 26 26 26 20 19 21 26 26
33 32 31 30 30 29 28 26 23 21 21 21 22 21 20 18 17 18 16 13 13 12 15 14 18 20 23 26 25 27 27 26 26 26 26 26 25 25 25 23 19 20 21 23
30 30 29 28 27 25 24 23 21 21 20 20 20 21 20 17 17 16 17 19 17 15 14 15 17 20 24 24 25 27 27 25 25 25 24 23 24 23 22 22 21 19 19 20
28 28 27 26 25 21 20 21 20 19 19 18 17 17 17 16 16 17 14 14 16 11 13 14 17 19 21 22 24 26 26 25 23 23 23 23 21 21 23 22 21 20 19 18
27 26 26 23 21 20 20 19 19 19 18 16 14 10 8 7 4 5 9 5 8 9 16 14 17 18 20 22 25 26 24 24 23 23 22 21 21 21 20 20 20 19 19 19
24 23 24 22 21 19 19 19 18 19 15 11 9 6 3 2 6 8 11 4 5 11 16 15 18 17 20 21 23 23 23 23 22 21 21 20 19 19 19 18 18 18 18 18
20 21 20 20 19 18 17 17 17 14 13 11 8 4 3 1 -1 11 10 5 5 15 16 14 15 16 19 20 19 21 21 20 20 18 18 19 17 17 17 17 18 17 17 17
19 19 19 18 17 16 15 15 14 13 9 6 5 0 1 2 3 3 9 12 10 16 14 12 13 15 18 17 18 17 17 18 17 16 16 14 15 13 13 13 13 14 15 15
15 14 13 14 15 14 13 13 12 7 4 1 -1 2 5 9 6 5 2 7 11 13 12 12 13 12 15 14 17 14 15 15 16 16 15 16 14 11 12 14 13 12 14 12
14 14 12 11 13 11 9 8 5 4 1 0 -0 2 5 8 8 6 6 10 13 12 11 7 8 10 10 10 10 12 11 11 14 15 11 12 10 13 8 7 12 13 12 12
14 13 13 13 12 11 9 3 6 5 1 1 1 1 11 16 7 9 12 6 3 12 3 2 6 10 7 7 7 10 5 5 11 12 12 11 7 7 10 10 7 11 9 6
15 15 13 12 12 12 11 11 9 6 7 7 6 8 12 10 8 6 4 4 9 7 8 4 4 5 2 0 1 4 12 3 3 9 9 10 11 5 5 8 9 9 9 4
17 15 15 15 18 17 17 16 13 12 17 10 11 5 5 7 8 12 11 6 8 8 6 2 -0 -2 -2 0 -1 -1 -0 4 1 3 3 5 7 8 1 5 1 4 7 1
17 16 16 18 20 18 17 15 17 13 17 15 11 7 9 5 3 6 6 2 3 1 2 2 3 2 -1 -2 -1 -1 -1 -1 -3 -1 -3 2 3 2 3 9 6 -3 -1 2

GFSNGP_sfc_dewp_150.txt.gz
Dewpoint
24 24 25 24 23 18 22 20 20 17 25 29 30 30 30 30 29 29 28 29 29 28 24 23 25 27 28 29 28 29 29 29 30 31 31 32 32 33 34 36 37 37 38 40
25 24 25 23 26 25 21 18 19 21 25 30 32 32 30 29 29 28 27 28 28 27 29 26 26 26 27 28 27 28 29 30 30 30 29 30 30 31 32 34 35 35 35 35
24 27 26 25 27 27 26 25 23 21 28 30 30 31 31 29 28 27 26 26 26 26 27 26 26 26 26 26 26 27 29 30 32 29 28 28 29 29 30 32 33 33 33 33
23 26 19 23 23 25 20 23 29 30 30 30 31 32 30 28 27 26 25 24 23 24 24 23 24 24 26 25 25 26 29 30 30 31 28 27 27 27 28 31 32 31 31 31
22 22 21 20 18 15 15 20 28 31 30 31 30 29 27 27 27 24 23 23 23 24 23 23 23 24 23 23 24 26 29 29 29 30 28 27 26 26 27 28 30 30 30 30
26 21 14 20 20 23 24 24 30 30 30 31 31 25 26 27 25 23 22 22 22 23 23 22 23 24 23 23 24 25 28 28 28 30 29 26 25 25 26 27 28 28 28 30
24 20 20 25 22 24 19 23 30 31 31 30 26 27 28 26 22 22 21 21 21 21 21 21 23 24 22 23 24 26 27 27 28 29 30 27 26 25 25 26 27 27 28 29
24 21 17 26 23 21 28 31 32 32 30 30 30 29 26 23 21 21 20 20 20 19 19 20 21 24 21 23 25 26 26 26 28 28 28 28 25 25 25 25 25 26 26 28
24 22 29 32 32 32 31 31 31 31 30 29 28 26 23 22 21 20 20 19 20 19 18 19 20 22 21 23 25 26 26 26 27 27 28 29 26 25 25 25 25 25 25 26
24 29 29 32 32 33 32 31 31 30 29 28 27 25 23 21 21 20 19 18 20 17 17 19 20 21 21 23 25 26 25 25 26 27 27 28 27 26 26 24 25 25 25 25
33 32 31 30 30 31 30 30 29 29 28 26 26 24 22 21 20 19 17 17 19 17 18 18 20 21 22 23 25 26 25 26 27 28 27 27 27 27 26 25 27 26 26 26
28 33 31 31 30 30 28 27 26 25 25 25 26 23 22 20 18 16 17 19 18 19 19 19 19 20 22 24 25 27 24 25 27 27 27 26 26 23 23 24 25 27 28 27
34 34 33 32 30 28 28 28 26 25 24 23 25 25 22 19 18 18 17 19 19 18 18 18 19 19 22 25 25 26 25 25 26 26 26 25 25 23 19 21 22 23 25 25
32 31 29 29 28 28 26 27 26 24 23 23 26 24 20 18 18 14 8 9 8 8 11 12 14 18 22 24 25 25 25 26 25 25 25 25 24 23 22 19 17 18 21 22
31 30 30 29 28 28 24 22 21 21 21 21 21 19 18 17 16 17 15 12 6 6 10 11 12 16 20 21 22 25 23 24 25 25 23 23 24 23 22 21 17 17 17 18
29 28 27 26 26 26 22 21 20 21 21 20 18 17 17 16 16 17 18 18 15 12 9 8 10 16 19 21 21 24 24 22 22 22 23 21 21 20 21 20 19 16 15 16
28 27 26 25 22 22 21 20 20 19 18 17 18 17 16 16 16 13 8 6 5 6 3 3 8 16 19 22 23 24 24 22 21 21 20 20 19 19 19 18 19 18 17 15
28 27 24 21 21 20 19 20 19 18 16 15 13 9 7 6 7 1 -3 -2 4 3 7 8 14 17 19 21 22 22 22 20 20 20 19 18 18 18 17 17 16 16 16 17
24 22 21 21 20 19 19 19 17 14 10 8 7 4 1 -1 7 3 -1 3 2 9 8 14 18 17 19 19 19 19 18 17 17 17 17 14 14 15 14 15 15 15 15 15
21 20 20 20 19 18 16 15 14 12 10 7 3 3 3 -2 2 -0 1 6 6 9 13 14 15 16 18 17 15 16 16 16 16 14 12 13 10 10 11 10 11 12 12 13
19 19 18 17 16 16 15 14 14 12 8 4 5 1 1 -5 -3 -1 5 9 11 13 12 12 14 14 15 14 14 12 11 13 13 12 13 8 7 6 8 9 7 10 9 10
15 14 14 15 14 12 10 11 10 5 3 -2 -8 -3 2 1 1 -1 -4 6 10 5 10 11 11 5 10 10 11 8 10 9 12 12 10 8 9 4 2 5 9 8 8 5
13 13 12 12 12 8 5 4 0 3 3 0 -1 2 7 8 6 3 2 8 11 6 8 4 4 5 3 4 3 1 2 3 8 10 10 7 0 3 8 4 5 2 -2 -1
12 12 10 9 9 9 6 -3 2 1 -0 -4 -1 2 11 8 2 5 6 1 5 -0 -2 -2 3 3 -1 -1 -1 -3 -3 -2 1 2 5 0 -0 -1 2 5 4 3 2 -1
13 12 11 10 9 8 8 6 5 -1 1 3 2 3 12 9 6 5 -0 1 7 4 0 -2 1 -1 -7 -9 -9 -7 -8 -10 -9 -3 -1 1 0 -1 -1 -3 -6 2 -2 2
14 14 13 11 12 13 13 12 10 7 8 1 2 -2 -1 2 5 5 1 1 2 2 0 -5 -6 -8 -8 -7 -9 -9 -8 -5 -8 -7 -9 -9 -10 -4 -3 -0 1 -5 -8 -7
14 13 13 14 16 16 15 13 10 9 10 8 8 2 5 -2 -1 2 -2 -4 -4 -4 -6 -6 -6 -2 -5 -8 -7 -8 -8 -9 -10 -9 -14 -14 -14 -16 -15 -5 3 2 -4 -6